Theta_e
295 295 295 295 296 296 295 295 295 295 295 295 295 294 294 294 295 295 296 297 297 298 299 300 301 301 301 302 303 303 304 305 305 306 307 307 308 308 310 313 313 315 318 323 328 332 334 337 340 340 341 341 341 342 342 342 343 344 345 343 344 347 345 343 342 342 342 342 343 344 344 344 344 342 343 343 342 342 342 341 340 339 339 338 337
293 294 294 294 295 295 295 294 294 294 294 294 294 293 293 293 294 294 294 295 295 297 297 299 300 301 301 301 302 303 303 303 304 304 306 306 306 306 307 309 310 311 312 314 317 321 328 333 336 339 340 341 341 342 342 341 342 343 343 344 343 343 345 343 341 342 341 341 343 343 343 344 343 342 343 342 341 341 341 340 339 339 338 337 337
293 293 293 293 294 294 294 294 294 294 294 293 294 293 293 293 293 292 293 293 294 295 296 297 298 299 300 300 301 302 302 303 304 304 304 305 305 305 306 307 308 309 310 312 313 316 320 324 331 336 339 340 340 341 342 342 342 343 343 344 344 343 341 342 342 340 339 340 342 342 343 343 343 342 342 342 341 341 341 340 339 338 338 338 338
293 292 292 292 292 292 293 293 293 293 293 293 292 293 293 293 293 293 293 293 293 294 295 295 296 297 299 300 301 301 301 302 302 303 304 304 304 304 305 305 305 308 308 310 313 314 316 319 321 326 332 338 340 340 341 341 342 343 343 344 345 345 342 341 342 342 341 340 341 341 342 342 342 342 342 341 341 340 340 339 339 339 338 337 338
291 292 291 291 292 292 292 292 292 292 292 292 292 293 293 292 293 293 293 293 293 293 295 295 295 296 297 298 299 300 301 302 302 302 302 303 303 303 304 304 304 305 307 308 310 311 314 317 321 324 330 333 337 338 339 339 340 342 343 343 344 346 344 343 340 342 342 342 340 341 341 342 342 342 341 341 341 340 340 339 338 338 338 338 337
291 291 291 291 291 291 291 291 292 291 292 292 291 291 291 292 292 291 291 292 292 293 292 293 293 294 295 296 297 298 300 301 301 301 302 302 302 303 303 303 303 304 305 305 308 309 311 313 315 317 322 328 334 336 338 338 337 339 342 342 342 344 344 344 340 344 344 343 342 341 341 342 342 341 341 341 340 339 339 338 338 338 338 337 337
291 290 290 290 290 290 290 290 290 291 290 291 290 291 291 291 291 290 291 291 292 292 292 292 292 292 294 294 295 296 297 297 299 299 300 301 301 301 302 302 303 303 304 304 304 307 310 311 313 317 321 324 327 333 334 337 338 337 340 342 342 342 342 342 341 339 343 343 339 341 341 341 341 341 341 340 339 339 339 338 338 339 338 338 337
290 290 289 289 289 289 289 290 290 290 290 290 290 290 290 290 291 291 289 290 291 291 292 291 292 292 293 293 294 295 295 296 297 298 299 300 300 301 302 302 302 302 303 303 303 303 306 308 309 311 312 316 323 332 336 337 338 340 337 341 342 341 341 341 340 340 340 341 339 339 339 340 340 341 341 340 340 339 338 338 338 338 338 337 337
289 289 289 289 288 289 289 289 289 289 289 289 289 290 289 289 290 290 290 289 290 290 290 290 290 291 291 292 293 294 295 296 297 297 299 299 300 300 301 302 302 301 301 302 303 303 304 307 309 310 311 312 314 317 323 335 336 338 339 338 340 341 340 340 340 339 338 340 340 340 340 339 340 341 341 340 339 338 338 338 337 337 337 337 336
289 289 288 288 288 288 289 289 289 288 288 288 288 289 289 289 288 289 290 289 289 288 288 289 290 290 290 291 292 292 293 294 296 297 297 298 299 299 300 301 301 302 302 302 303 303 303 304 306 308 308 311 315 316 320 325 333 336 338 339 339 339 340 340 339 339 338 339 340 340 340 340 340 341 341 340 339 339 338 337 337 337 337 337 336
289 288 288 287 288 288 288 288 288 287 288 288 288 288 289 288 288 288 289 289 287 288 288 288 288 289 289 289 291 291 292 294 295 295 296 297 297 298 300 300 300 300 301 302 302 303 303 304 304 304 304 309 315 316 317 318 326 331 334 338 338 340 340 339 339 339 339 340 339 340 339 339 340 340 340 339 339 338 338 338 337 337 337 337 336
288 288 287 287 287 287 287 288 287 287 287 287 287 287 287 287 287 286 286 287 288 288 288 287 287 287 288 289 292 293 293 294 295 296 296 297 297 298 298 299 300 301 301 302 302 303 303 304 304 304 304 305 309 314 320 323 324 328 331 336 337 337 338 337 338 337 339 339 340 340 341 339 339 340 339 339 338 338 337 337 337 337 337 337 335
287 287 287 286 286 287 287 287 287 286 286 286 287 286 286 286 286 286 285 285 286 287 287 287 285 286 289 289 290 291 292 292 293 295 296 297 298 297 298 299 299 300 300 301 302 302 303 303 303 304 305 305 305 308 313 316 317 325 331 336 336 336 337 338 338 338 337 339 340 340 341 339 338 339 338 338 338 338 338 337 337 337 337 337 336
287 287 286 286 286 286 286 286 286 286 286 286 286 286 285 286 286 284 286 285 284 286 287 286 285 284 283 284 286 290 292 293 293 295 296 297 298 298 298 298 298 300 301 301 301 302 302 303 304 305 306 307 307 306 307 314 316 322 330 333 336 336 337 336 335 339 338 339 339 340 340 339 339 340 340 338 339 339 338 338 338 337 336 337 335
287 286 286 286 285 285 285 286 286 286 285 285 285 285 285 285 285 284 283 285 285 287 286 287 283 284 284 283 284 284 287 290 294 295 297 298 298 298 297 298 298 300 300 301 301 302 303 304 305 309 310 310 310 310 308 307 314 316 323 326 330 334 337 338 336 336 338 338 339 340 340 339 338 340 340 340 339 339 338 338 338 337 336 335 335
286 286 285 285 285 285 285 285 285 285 284 284 284 284 285 284 284 284 283 282 283 284 286 286 285 284 280 283 282 283 281 287 289 291 293 292 293 293 294 295 296 298 298 298 299 299 300 301 301 303 302 302 304 307 312 313 311 311 312 316 321 329 334 337 336 335 337 338 338 340 340 340 340 341 341 340 339 339 339 338 337 336 336 334 335
286 286 285 285 285 285 285 284 284 284 284 284 284 284 284 284 284 283 283 282 281 282 283 285 284 285 283 281 281 282 283 284 285 284 290 291 293 294 295 295 296 297 297 298 299 299 300 300 301 301 301 301 302 303 305 309 315 316 317 313 316 322 326 335 337 336 335 338 337 339 340 340 341 341 340 339 338 339 338 337 336 336 336 335 335
285 285 285 284 284 284 284 284 284 284 284 284 283 283 283 283 283 283 282 283 281 280 281 284 284 284 284 284 283 280 280 282 282 279 288 289 289 290 292 293 294 294 295 295 296 297 298 298 299 300 302 304 304 306 308 307 306 314 319 321 321 324 324 327 334 336 336 336 338 337 340 341 340 341 340 338 338 339 338 338 337 335 335 335 335
285 285 284 284 284 284 284 284 283 283 283 283 282 283 283 283 283 282 282 282 282 279 280 281 283 283 283 283 283 284 284 281 279 281 279 284 288 289 290 292 292 293 293 295 296 296 298 299 300 300 301 301 301 301 303 302 302 303 306 312 319 324 324 323 325 330 333 333 337 337 336 341 341 341 340 341 340 339 338 337 336 335 335 334 334
284 284 284 284 283 283 283 283 283 283 282 282 282 282 283 283 283 282 282 282 281 280 280 281 280 281 283 282 283 283 283 283 283 280 279 278 280 287 289 289 290 291 292 293 294 295 296 297 297 298 299 300 300 301 303 304 305 305 305 309 318 323 324 323 323 322 326 331 333 338 336 339 340 342 341 338 340 340 339 338 336 335 335 335 334
284 283 283 283 283 283 283 282 282 282 282 282 282 282 282 281 281 281 281 281 281 281 280 280 280 280 281 281 282 282 282 283 283 282 280 279 279 281 282 287 288 289 290 292 294 295 295 296 298 298 298 299 301 301 300 302 304 306 306 308 312 319 323 322 322 321 321 323 330 333 335 336 340 340 343 341 338 339 337 336 335 336 335 334 334
283 283 283 283 283 282 282 282 282 282 281 282 282 281 281 281 281 281 281 280 281 280 280 280 280 280 280 280 279 279 280 280 280 280 280 280 277 278 281 281 281 285 289 289 291 292 293 295 296 298 298 299 300 300 301 301 301 304 307 306 310 313 318 321 323 322 322 322 323 325 331 335 337 341 344 343 341 339 337 336 335 335 334 334 334
282 282 282 282 282 282 281 282 282 281 281 281 281 281 281 281 281 281 280 280 280 280 280 280 280 279 280 279 279 279 278 278 279 280 279 278 278 278 280 282 283 283 286 290 291 292 294 294 295 297 298 299 299 300 300 301 300 303 302 305 306 307 310 320 322 321 321 322 322 322 324 327 333 336 340 344 343 341 338 338 336 335 334 333 332
282 281 281 282 281 281 281 281 281 281 281 281 281 281 281 280 280 280 280 280 280 279 279 278 279 279 279 279 279 279 279 278 279 279 279 278 279 278 279 280 281 283 285 287 289 289 291 292 293 296 297 298 299 300 300 300 299 298 299 301 304 305 308 309 318 321 321 321 320 320 323 324 327 331 334 341 341 341 339 337 336 335 335 334 333
281 281 281 281 281 280 280 280 280 281 281 280 280 280 280 280 280 279 279 279 279 279 278 278 278 278 278 279 279 279 279 280 280 279 279 279 278 276 278 280 278 279 282 284 284 288 290 291 293 294 296 297 298 298 299 299 300 299 299 301 302 304 304 306 311 319 320 320 320 320 322 323 325 329 333 336 339 340 338 336 336 335 337 336 335
280 280 281 280 280 280 280 280 280 280 280 280 280 280 280 279 279 279 279 279 279 279 278 278 278 278 279 278 278 278 278 279 279 279 278 277 276 276 277 278 278 278 280 282 284 284 287 290 292 293 294 295 297 298 299 299 300 298 297 299 303 306 308 312 315 318 320 320 320 319 318 319 323 326 329 335 338 339 338 337 336 335 335 334 334
279 280 280 279 279 279 280 279 279 279 279 279 279 279 279 279 278 278 278 278 278 278 278 278 277 277 278 277 277 278 278 278 278 278 278 278 278 278 276 274 275 277 277 280 282 284 285 288 291 292 295 296 297 297 297 298 298 298 297 304 304 302 305 309 312 316 318 320 319 318 318 317 320 324 326 327 332 334 336 336 336 336 335 334 333
279 279 279 279 279 279 279 279 279 279 279 278 278 278 278 278 277 277 277 278 277 277 277 277 277 277 277 277 277 277 278 278 278 278 279 279 278 278 276 275 273 271 275 277 280 281 286 286 288 292 294 295 296 297 296 297 299 297 295 299 300 304 307 310 312 314 318 320 318 317 317 317 318 319 323 324 325 326 326 328 328 328 326 327 327
278 279 278 278 278 278 278 278 278 278 278 278 278 278 277 277 277 277 276 277 277 277 277 277 277 277 277 277 277 277 277 279 278 278 278 277 277 277 277 276 275 273 273 274 276 278 282 286 285 289 293 295 296 298 298 298 297 297 300 300 301 302 304 307 311 314 317 319 318 318 317 317 317 318 319 321 322 322 324 325 326 325 325 325 326
278 278 278 278 278 277 277 277 277 277 277 277 277 277 277 276 276 276 276 277 276 276 277 277 276 277 277 277 279 277 278 277 276 276 276 276 276 276 276 277 277 274 274 272 274 278 280 284 286 287 290 292 296 296 297 298 297 300 302 302 304 309 306 305 308 311 313 316 318 319 318 317 317 317 317 319 321 322 324 324 324 324 325 325 328
277 278 277 277 277 277 276 276 276 276 276 276 276 276 276 275 275 275 275 276 275 275 276 276 276 276 276 276 276 275 276 275 275 275 275 275 275 275 275 276 275 275 274 274 271 275 280 279 283 287 288 290 293 295 297 298 298 298 300 302 302 299 298 300 302 308 311 313 316 317 318 318 317 316 316 317 320 322 324 323 322 323 324 325 327
277 277 276 276 276 275 275 275 275 275 275 275 275 275 274 274 274 274 274 274 274 274 274 275 275 275 275 274 274 274 274 274 274 274 274 274 275 274 274 274 274 274 274 273 272 272 278 280 282 285 288 289 292 294 295 297 298 295 300 299 299 296 300 301 302 303 307 311 314 316 316 317 317 317 317 317 319 321 321 321 321 322 323 324 325
276 276 275 275 275 274 274 274 274 274 273 273 274 274 273 273 273 273 273 273 273 273 273 273 274 275 274 273 273 273 274 273 273 273 274 274 274 274 274 274 273 274 273 273 272 273 277 281 282 284 287 288 288 292 294 295 297 298 296 299 299 300 301 303 304 301 305 308 311 314 316 316 317 317 316 316 317 320 320 322 321 320 321 323 324
275 275 274 274 274 273 273 273 273 273 273 273 273 273 272 272 272 272 272 272 272 272 272 272 275 274 273 272 272 273 273 273 273 273 273 273 273 273 273 273 273 274 276 274 273 273 274 279 281 284 285 288 287 292 293 294 295 297 297 298 300 300 300 302 305 306 305 307 310 313 315 315 316 317 316 316 317 318 320 321 319 318 319 321 320
275 274 273 273 273 272 272 272 272 272 272 272 272 272 271 271 271 271 272 271 271 271 271 274 273 273 272 272 272 272 273 272 272 272 273 273 273 273 273 273 273 273 274 275 275 275 276 278 281 282 285 288 289 290 293 295 296 297 297 298 299 300 302 302 303 305 304 307 310 313 314 315 315 315 315 315 315 316 316 318 318 316 317 318 318
273 273 273 272 272 271 271 271 271 271 271 271 271 272 271 271 271 271 271 271 271 271 271 272 271 271 271 271 271 272 272 271 271 272 272 273 273 273 273 274 274 274 274 275 275 275 276 277 280 282 285 286 288 291 294 296 296 297 297 299 300 300 300 301 304 305 305 307 309 311 313 314 314 314 314 314 315 315 315 315 315 315 315 315 316
272 272 272 272 271 271 270 270 270 270 271 271 271 271 271 271 271 271 271 271 271 272 271 271 271 270 270 271 271 271 271 271 271 272 272 272 272 273 273 274 274 275 275 276 275 276 275 277 280 283 285 286 289 292 295 293 296 295 297 297 297 297 298 300 303 305 302 304 306 308 311 313 313 314 314 314 314 314 315 315 315 314 314 314 314
271 271 270 270 270 270 270 270 270 270 271 271 271 271 271 271 271 271 271 271 272 271 270 270 270 270 270 271 271 271 271 271 271 272 273 273 273 273 273 273 273 274 273 274 277 278 277 277 279 281 285 286 287 290 294 294 294 293 295 296 297 298 298 299 301 303 305 307 310 311 309 311 310 312 313 313 314 314 314 314 314 313 311 311 312
269 269 269 269 269 270 270 270 270 270 270 271 271 271 271 271 271 271 270 271 270 270 270 270 270 271 271 271 271 272 272 272 272 272 272 273 273 273 273 273 274 274 273 273 274 276 278 279 280 282 283 286 288 287 292 294 295 294 293 294 293 296 298 298 299 302 305 307 309 308 312 313 311 312 311 311 312 312 313 313 313 313 310 310 310
268 268 268 268 269 269 269 270 270 271 271 271 271 271 271 270 270 271 270 270 270 271 271 271 272 271 271 271 272 272 272 273 273 273 273 272 274 274 274 274 274 273 273 274 274 275 276 279 280 281 284 285 288 290 293 294 293 293 294 293 292 292 294 298 300 300 303 307 311 312 310 310 311 310 310 310 310 311 311 311 310 309 308 309 310
268 268 268 268 268 269 269 270 270 270 270 270 270 270 270 270 271 271 271 271 271 271 271 271 272 272 273 273 273 273 273 275 276 276 276 276 274 273 274 274 274 273 273 274 274 274 274 276 278 281 283 285 287 289 289 290 291 290 293 295 293 293 295 296 299 301 303 305 310 313 313 314 314 314 315 314 314 310 310 308 310 305 305 309 310
267 268 267 268 268 269 269 270 270 269 269 270 270 272 273 272 272 272 272 271 271 271 271 271 272 273 273 274 274 277 277 276 276 277 278 279 279 277 275 275 274 274 274 274 274 274 275 276 277 279 282 284 286 288 289 290 293 294 293 293 292 293 294 295 297 299 302 305 308 310 312 315 314 314 315 315 315 309 315 313 315 311 306 309 310
266 267 267 268 268 269 269 269 268 269 269 269 271 274 275 276 273 272 272 272 273 273 273 273 273 274 274 275 275 276 277 277 276 278 279 279 279 279 280 280 279 276 275 275 275 275 275 276 277 278 279 282 287 289 289 291 293 293 293 294 293 293 293 292 291 296 301 305 308 309 310 313 314 312 313 314 315 313 314 314 309 307 308 310 310
266 267 267 268 268 268 268 268 268 268 268 270 273 274 275 275 276 273 273 273 273 274 274 274 274 274 274 275 275 276 276 276 276 276 277 278 279 280 280 280 281 281 281 278 276 276 276 276 277 278 279 281 285 289 289 291 291 292 292 292 292 292 293 293 294 294 300 308 309 308 308 310 313 313 312 314 315 314 314 311 307 307 309 310 309
266 266 267 267 267 267 267 267 267 268 268 270 272 274 275 276 276 276 274 274 273 273 274 274 274 273 274 274 274 275 276 278 277 277 277 277 279 280 280 280 280 281 281 282 282 279 278 277 277 278 280 282 284 287 290 291 292 290 290 289 290 290 292 294 295 296 299 306 309 307 306 308 311 309 312 313 314 315 313 308 307 307 308 309 309
265 265 266 266 266 266 266 266 266 267 267 269 272 274 275 276 277 277 274 274 273 273 273 273 273 273 273 273 273 274 275 275 276 276 277 277 277 277 277 277 277 278 280 280 280 281 280 279 279 279 281 283 283 287 290 291 290 288 287 286 287 286 287 288 292 295 300 305 307 307 304 306 309 311 310 312 313 314 314 309 307 308 309 309 309
265 264 265 265 265 265 265 265 265 266 267 271 273 274 275 276 277 277 274 273 273 273 273 273 273 273 273 273 273 273 274 275 276 276 276 277 277 277 276 276 277 277 277 277 277 277 278 279 280 281 282 284 285 286 288 290 290 289 289 287 287 287 287 289 290 292 295 300 305 307 300 304 309 309 310 311 312 313 313 308 307 308 309 308 308
265 265 265 265 264 264 265 265 265 265 267 271 273 274 275 276 277 274 273 273 272 272 272 273 273 273 274 273 273 273 274 274 277 279 279 278 277 276 276 276 276 276 277 278 280 280 280 281 283 284 284 285 287 286 288 290 290 289 288 288 287 286 286 285 286 290 292 297 304 307 301 303 307 309 308 311 312 311 311 310 307 308 308 308 308
264 263 263 264 264 264 264 264 264 265 266 269 273 274 275 276 275 273 273 272 272 272 272 273 273 273 274 274 274 274 274 274 277 279 280 280 277 277 276 276 276 276 276 277 280 281 283 283 284 285 287 288 289 290 291 291 289 289 287 285 285 286 285 284 285 288 290 296 302 308 304 302 305 308 306 308 309 307 309 310 310 307 308 308 308
262 263 263 263 264 264 264 264 265 265 266 270 273 274 275 276 275 272 272 272 271 272 272 273 273 274 274 276 276 275 274 275 278 280 280 279 277 277 276 276 276 275 276 277 277 278 281 284 285 286 287 289 289 290 290 291 291 290 287 284 286 286 285 285 284 286 289 294 302 307 304 303 305 306 305 305 304 306 308 309 309 309 306 307 307
262 263 263 263 263 264 264 265 267 267 267 269 272 274 275 276 274 272 272 272 271 271 272 272 273 273 273 275 276 276 276 277 279 280 281 280 277 277 277 276 275 275 276 277 277 277 279 281 282 285 286 287 288 289 289 289 290 289 289 287 286 285 284 285 285 286 286 289 302 306 304 302 303 304 304 302 300 300 306 306 307 309 310 309 309
Wind_Speed
5 5 4 4 4 4 3 3 3 4 5 5 5 6 6 6 6 7 7 7 7 7 7 8 7 7 8 9 9 9 9 9 9 9 9 9 9 10 12 13 17 18 19 20 21 23 26 27 28 28 26 26 26 26 26 25 23 23 23 25 27 25 24 24 25 24 25 28 28 24 30 32 27 25 26 23 22 25 25 25 24 24 23 23 24
5 5 5 5 4 4 3 3 4 4 4 5 5 6 6 6 6 7 7 7 7 7 7 7 7 8 8 8 9 9 9 9 9 9 9 9 10 10 12 12 14 19 21 21 22 22 25 27 28 29 29 28 27 27 27 27 26 25 25 24 25 26 23 24 27 25 18 21 25 27 29 30 28 28 26 26 26 27 25 22 22 23 24 25 26
5 6 6 6 5 5 4 4 3 4 4 5 5 6 6 6 6 7 7 7 7 7 7 8 8 8 8 8 9 8 9 9 9 10 10 10 10 10 12 14 15 17 18 20 21 22 23 25 27 28 29 29 28 28 27 26 27 27 25 24 25 27 27 27 24 23 23 27 25 26 26 27 27 26 28 27 26 27 23 20 20 20 23 25 25
5 5 6 6 5 5 4 4 4 4 4 5 6 6 6 6 7 7 8 7 7 7 7 7 8 8 8 9 9 9 9 9 10 10 10 10 10 11 11 12 14 15 17 19 22 22 23 24 25 27 29 29 28 28 27 27 27 28 27 26 26 24 25 29 25 23 26 28 29 28 29 27 29 27 26 28 28 27 23 24 24 25 24 24 24
4 5 6 6 6 6 5 4 4 5 5 6 7 6 6 6 7 7 7 7 7 7 7 7 8 8 8 9 9 10 10 9 9 10 11 11 11 11 11 12 13 15 17 17 20 21 21 22 23 25 26 28 29 29 29 29 28 28 28 26 25 25 24 27 27 24 27 27 30 28 29 29 32 30 29 29 29 25 24 24 24 24 25 24 23
4 5 5 5 5 5 5 5 4 6 5 5 6 6 6 7 8 7 7 7 7 8 8 8 8 8 9 9 9 10 10 10 10 10 10 11 11 11 11 11 11 11 12 15 16 19 22 23 24 25 25 27 27 28 30 28 28 28 28 28 27 25 25 26 28 27 27 23 27 31 31 30 29 30 33 32 30 27 23 25 26 26 25 26 24
4 4 5 5 5 5 5 4 5 6 5 4 5 6 6 7 7 7 7 7 7 8 8 9 9 9 9 9 10 10 10 11 11 11 11 11 11 11 11 11 11 11 11 11 13 16 17 19 22 22 24 26 28 28 29 30 30 29 28 27 28 27 26 26 26 29 28 23 27 26 28 28 26 27 29 30 27 27 26 24 23 23 24 25 26
4 4 5 5 5 5 5 5 6 5 4 4 5 5 5 6 6 7 8 8 8 8 8 9 9 10 10 10 10 10 11 11 12 12 11 11 11 12 11 12 12 11 12 12 12 14 17 19 22 24 25 26 27 27 29 30 31 30 30 29 27 29 28 27 28 29 27 25 27 29 29 26 29 31 28 29 27 29 29 28 26 26 27 27 26
4 4 5 5 5 5 5 5 5 5 4 4 5 5 5 6 6 6 7 8 8 9 9 9 10 10 11 11 11 11 11 11 11 11 11 12 12 13 12 13 13 15 13 12 12 12 15 16 19 22 23 25 29 30 30 30 31 31 31 29 29 28 27 26 24 25 27 24 26 29 34 35 38 40 42 39 34 34 33 30 28 28 29 28 27
4 4 5 5 5 5 6 6 6 5 4 5 5 5 5 6 7 7 7 8 8 9 10 9 9 10 11 11 12 11 12 12 12 12 12 13 13 13 13 12 12 13 12 12 13 13 13 16 19 21 22 22 25 29 30 31 31 31 32 30 28 29 28 27 24 26 27 26 25 27 30 33 33 33 36 41 35 29 29 30 30 30 30 29 28
4 5 5 5 5 5 6 6 6 5 5 5 5 5 5 6 8 8 7 7 8 9 9 10 10 10 11 14 13 14 12 12 12 12 12 13 13 14 12 13 13 13 13 13 12 13 14 13 13 12 13 19 22 27 31 32 31 31 32 31 30 29 29 28 26 24 26 25 26 27 29 27 31 30 29 23 28 31 32 29 30 30 30 29 29
5 5 5 5 5 5 6 6 6 5 5 5 5 4 6 8 8 8 9 8 7 7 8 9 11 13 14 13 12 13 14 13 14 13 13 13 13 12 12 11 11 12 12 12 12 13 13 13 13 13 14 16 20 21 24 27 27 29 31 32 31 31 31 30 26 24 25 26 26 27 26 28 27 23 27 32 28 24 29 31 30 31 31 30 31
5 5 5 5 5 6 6 6 6 5 5 5 5 7 6 7 7 7 8 9 7 6 7 8 11 13 10 12 13 13 16 16 16 14 14 13 11 11 11 11 11 11 11 11 13 13 13 13 13 13 14 13 14 19 23 26 26 27 32 33 34 32 31 30 29 25 26 27 26 26 26 28 29 31 31 31 30 30 31 33 36 36 33 30 30
5 5 5 6 6 6 6 7 6 5 5 6 6 6 7 6 6 8 6 7 8 7 7 8 8 9 15 17 14 10 11 13 14 14 13 11 10 11 11 12 13 12 11 11 13 13 13 13 13 13 13 13 14 14 14 17 24 29 30 33 35 33 32 33 30 30 25 23 25 26 28 32 30 33 31 34 35 35 35 34 34 35 35 31 31
6 6 5 6 6 7 7 6 6 5 5 5 5 6 5 7 7 7 9 7 8 6 6 4 8 9 10 12 13 18 13 7 10 9 7 8 9 11 12 13 14 13 12 12 12 12 12 12 13 13 13 13 13 14 14 16 18 21 28 30 31 32 34 32 33 32 30 28 27 27 27 29 32 35 35 35 35 34 36 35 36 33 35 34 33
6 6 6 6 7 7 7 6 6 5 5 5 6 6 6 6 6 7 7 10 7 7 5 6 6 7 9 6 13 11 18 7 8 12 11 17 17 16 14 13 14 14 13 14 14 13 13 13 14 15 15 15 14 15 15 15 19 19 22 26 29 32 32 32 33 34 30 29 29 29 27 29 32 34 36 41 42 43 41 38 35 33 34 33 31
6 7 7 7 7 7 7 7 6 5 5 5 5 6 6 6 7 7 7 8 11 9 7 6 8 6 7 9 9 9 11 15 16 19 8 9 7 9 11 13 13 13 12 13 13 13 14 14 15 15 16 16 16 16 16 18 17 16 17 23 27 29 30 34 33 32 34 30 30 30 28 28 28 31 33 36 37 36 38 39 40 37 35 34 32
6 7 7 7 7 7 7 7 6 5 4 5 6 6 6 7 6 7 8 8 9 11 10 6 7 9 11 11 10 12 15 17 13 16 10 11 15 13 12 13 13 14 14 15 16 15 15 16 15 15 15 14 14 15 14 14 14 15 16 16 25 29 29 30 34 34 34 33 31 30 29 29 29 28 34 38 35 34 36 41 38 42 42 36 33
7 6 6 6 7 7 7 6 6 6 5 5 6 7 7 7 6 7 7 7 8 11 11 10 8 9 10 13 15 15 14 12 14 14 19 14 7 10 12 12 14 16 16 16 16 15 14 14 15 15 16 16 16 16 16 17 20 19 23 23 21 25 29 28 30 32 34 35 32 31 32 31 32 33 41 36 39 37 38 39 41 40 40 40 36
6 7 6 6 7 7 7 6 6 6 6 6 7 7 7 7 7 8 8 8 9 10 11 9 9 10 7 10 12 14 16 17 18 15 17 19 22 13 11 13 12 14 16 17 17 16 18 17 18 17 16 17 16 16 15 16 16 17 17 21 23 24 25 28 30 30 31 32 35 32 33 33 33 36 34 37 39 39 42 46 48 43 39 39 38
7 7 7 7 7 7 6 6 6 6 6 6 7 8 9 9 9 8 9 9 8 9 10 11 10 11 9 11 11 12 12 13 14 14 14 16 22 18 18 15 14 15 14 15 16 15 16 17 17 17 16 16 16 16 17 16 16 15 17 21 23 23 27 28 29 30 30 31 34 35 33 34 32 36 36 36 41 37 43 42 36 38 40 39 40
6 7 7 7 7 7 6 7 7 7 6 7 8 9 9 10 10 10 10 11 10 10 12 12 11 12 11 11 11 11 12 12 13 13 16 17 19 21 18 18 20 17 13 15 18 17 17 17 18 18 17 16 16 16 16 17 17 15 17 20 21 21 27 31 30 31 31 31 30 32 32 29 30 33 38 41 39 35 35 31 32 37 38 37 36
6 6 7 7 7 6 6 6 7 7 7 8 8 8 8 9 9 11 12 12 11 12 13 14 12 13 13 12 13 12 12 13 12 12 13 14 14 18 19 18 18 20 18 15 15 16 16 15 17 18 17 17 17 16 16 16 17 16 19 19 20 22 23 29 33 32 32 32 32 31 32 31 29 30 36 41 40 38 39 34 37 35 33 37 37
6 6 6 6 6 6 6 7 7 7 7 7 8 8 8 9 9 9 10 11 12 12 13 14 16 13 14 13 14 13 14 14 13 13 14 16 15 19 17 17 19 18 17 15 17 18 19 19 19 19 18 17 16 16 16 17 18 24 20 22 22 23 24 25 32 33 32 32 32 31 31 32 29 28 32 34 37 41 41 39 43 46 44 39 36
6 6 6 7 6 6 5 5 6 6 7 8 9 10 10 10 10 11 12 12 11 12 12 14 14 14 13 13 13 14 15 14 14 14 14 15 16 18 18 15 19 20 16 14 14 14 16 17 16 18 18 19 18 17 18 17 17 17 18 16 22 23 24 26 28 36 34 32 32 31 31 32 31 28 30 35 38 40 41 39 37 39 39 41 41
7 7 6 6 6 6 6 7 7 8 9 10 10 10 11 11 11 12 13 12 13 15 15 16 16 18 15 15 15 15 15 14 15 14 15 15 16 17 17 16 17 20 18 15 14 15 16 16 17 17 18 19 18 17 17 18 17 21 24 20 19 20 21 21 25 33 36 32 33 31 31 31 32 30 30 33 38 39 39 42 39 40 36 37 41
7 7 7 7 7 6 7 8 8 9 10 10 10 10 11 11 12 13 13 12 14 14 14 16 16 17 18 16 15 15 15 14 13 15 15 16 17 17 16 19 18 17 18 16 15 19 19 15 14 16 17 17 17 18 18 19 19 19 16 14 13 22 23 24 25 29 35 33 32 32 31 32 31 31 29 33 38 41 45 45 46 44 42 39 38
7 7 8 7 7 7 7 8 9 10 10 11 11 11 11 12 12 12 14 11 13 16 15 16 18 19 19 17 16 17 16 15 16 18 18 18 19 20 18 19 18 20 18 18 17 17 19 18 16 18 18 18 18 19 20 19 21 21 21 17 17 16 19 20 23 26 33 34 32 32 32 32 31 31 30 30 35 35 38 40 39 40 38 36 36
7 6 7 7 6 6 7 8 9 10 11 11 12 12 12 12 12 14 14 13 14 15 15 15 16 16 16 18 18 17 16 17 19 18 18 18 17 18 17 17 17 18 18 17 19 17 16 16 16 15 17 18 17 17 19 19 20 19 18 17 16 15 18 20 21 24 30 35 33 33 33 33 32 31 31 30 33 32 32 35 39 38 39 38 37
6 6 6 6 6 7 7 9 9 10 11 11 11 12 12 12 13 14 14 14 14 14 14 14 15 15 17 18 19 18 19 18 17 18 18 18 17 18 17 19 18 20 19 20 21 14 16 16 16 16 14 18 16 16 15 17 19 15 11 14 13 12 13 15 20 24 27 34 34 33 33 33 33 31 31 31 33 40 40 41 39 40 38 40 40
7 6 6 6 6 6 7 9 9 10 10 11 11 11 12 12 13 13 13 13 13 14 13 13 15 16 18 19 19 18 18 18 18 18 18 18 17 18 17 18 18 19 21 20 21 19 13 17 17 19 17 18 18 15 13 15 16 17 16 14 13 15 17 17 19 20 25 29 31 32 32 33 33 31 30 31 33 36 45 45 40 39 36 34 39
7 6 5 5 6 7 8 8 10 10 11 11 11 12 12 12 12 12 12 13 15 15 15 14 13 16 18 19 19 17 17 16 17 17 17 17 17 17 17 17 18 19 18 20 22 25 15 17 18 20 21 20 20 18 17 17 17 18 16 15 15 17 14 13 17 20 23 27 32 31 31 32 32 31 31 31 33 34 34 39 41 39 37 35 34
6 6 5 6 7 7 8 9 10 10 11 11 10 11 12 13 12 14 15 14 16 15 14 16 16 17 19 19 19 19 18 18 17 16 16 17 17 17 16 16 18 19 18 20 22 23 18 17 18 19 20 19 19 20 20 19 18 17 20 17 15 14 14 13 13 17 22 26 31 33 32 31 31 31 30 30 32 33 35 35 37 40 41 39 38
5 5 6 6 6 8 9 10 10 11 11 12 11 11 12 13 14 11 12 14 15 15 15 17 19 16 17 19 19 19 18 19 18 17 17 17 18 17 18 17 17 17 17 18 20 20 22 18 18 19 19 20 21 20 20 22 21 17 19 16 11 12 13 13 12 12 20 24 31 35 33 32 32 31 30 30 31 30 35 40 39 40 41 42 41
4 5 6 7 8 9 10 10 10 11 11 11 11 11 12 13 14 14 13 14 15 16 18 20 19 18 18 18 19 17 15 17 18 18 17 18 17 20 21 18 19 19 18 19 18 18 21 20 18 19 18 17 18 18 20 20 19 17 19 17 12 10 11 14 13 11 18 23 29 36 35 33 32 31 30 31 30 32 30 36 43 40 40 41 41
5 5 6 8 8 9 10 11 11 11 11 11 12 12 13 13 14 15 14 15 15 16 18 19 18 17 18 19 18 18 17 18 18 17 17 18 17 17 20 19 19 21 18 17 20 20 19 20 19 18 15 15 16 17 18 16 17 15 14 13 12 13 13 13 13 12 15 23 27 34 35 34 31 30 30 30 32 32 32 31 36 41 39 38 38
5 6 7 7 8 9 9 10 11 12 12 12 12 13 12 13 14 15 15 15 17 19 19 18 18 18 18 19 20 19 18 19 18 18 17 21 18 17 18 17 17 17 16 17 18 18 20 22 20 17 17 16 16 17 16 17 13 14 14 16 13 12 13 14 13 12 17 25 27 33 32 32 30 29 29 31 31 34 36 35 32 36 38 37 36
6 6 7 7 7 9 10 11 12 12 12 12 13 13 13 14 14 15 15 16 18 18 19 18 17 17 19 19 20 19 20 19 19 18 19 20 19 19 20 19 20 17 18 19 19 19 20 20 20 19 16 15 15 16 15 15 13 13 12 12 12 11 12 14 13 11 10 12 13 21 27 27 29 29 29 30 32 34 35 36 41 36 37 38 38
6 7 8 9 8 9 11 11 12 12 13 12 12 13 14 14 15 15 16 18 19 17 18 20 20 19 20 21 21 20 21 20 20 20 20 20 19 22 20 20 19 19 18 16 17 20 20 19 18 18 17 16 16 18 13 14 12 11 12 11 11 9 9 12 14 12 10 13 19 25 22 21 23 22 28 30 31 32 35 36 33 47 46 43 39
6 7 8 9 9 9 10 11 11 11 12 12 13 13 13 13 14 17 18 18 18 19 19 19 19 20 20 22 21 22 21 22 20 21 20 19 18 20 19 19 18 19 17 16 16 17 18 18 17 16 15 15 14 14 14 12 11 12 10 10 11 11 10 10 13 13 12 11 14 15 20 22 22 24 27 30 31 32 31 30 31 29 43 45 43
6 7 8 9 10 11 11 11 12 11 11 11 10 10 12 16 16 18 19 19 20 20 21 19 21 20 21 20 21 22 23 28 31 28 27 25 18 18 20 19 17 18 18 16 15 15 16 17 17 15 15 15 16 12 10 12 11 12 9 7 11 11 10 11 13 13 12 13 14 15 16 18 16 16 15 15 21 28 27 29 28 29 30 37 40
7 7 9 9 10 10 11 11 11 10 10 9 12 19 21 18 19 18 18 19 20 19 19 21 19 21 19 22 19 31 32 32 32 34 33 34 35 27 21 21 19 18 17 17 16 15 15 16 16 15 16 16 15 13 14 13 11 10 9 9 11 11 10 12 12 12 11 13 15 14 13 14 15 15 15 16 17 22 18 22 21 25 27 31 35
7 8 8 9 9 9 10 11 11 10 10 10 19 22 25 27 21 19 20 19 18 19 19 18 20 18 21 19 21 24 26 29 29 37 35 34 34 35 37 35 30 23 17 17 18 16 17 17 14 15 16 17 15 12 14 13 9 9 9 9 10 10 10 10 12 12 11 12 15 12 13 14 16 15 15 16 17 18 17 18 30 36 35 33 33
7 7 9 9 9 9 9 10 11 11 12 16 22 24 26 27 25 20 18 17 18 17 18 18 18 18 19 18 19 17 19 21 22 23 27 33 33 33 35 34 34 36 33 25 20 17 18 17 16 15 15 16 16 13 12 10 9 9 9 9 9 10 12 11 11 13 10 8 14 12 13 12 15 15 16 17 16 18 20 25 33 36 41 39 37
6 8 8 9 9 9 9 10 11 12 13 18 23 26 27 28 28 25 17 19 18 20 18 20 21 21 19 19 19 18 17 26 23 21 23 23 29 33 33 34 34 35 34 36 34 25 19 18 18 18 17 15 15 11 7 7 7 10 8 7 8 9 11 12 12 12 14 11 14 13 12 12 14 15 16 16 17 18 22 29 36 36 37 39 38
6 7 8 9 9 9 9 11 12 12 14 18 25 27 27 29 29 25 19 19 19 19 20 20 20 21 21 20 20 19 18 20 20 21 21 23 22 22 21 21 21 26 31 34 35 36 30 22 19 20 20 17 16 12 9 5 6 8 7 8 8 9 11 13 15 15 15 13 17 11 11 13 15 15 16 15 17 20 20 31 41 41 40 39 36
6 6 7 8 8 8 10 11 11 13 12 22 26 28 27 28 29 27 18 18 18 19 20 21 21 21 21 20 21 21 20 20 18 21 22 21 20 18 18 19 20 21 21 21 20 18 18 18 22 23 21 20 19 17 15 10 9 8 7 9 9 9 9 12 14 16 17 16 19 15 13 12 13 15 16 15 17 19 19 32 41 42 42 41 39
5 6 6 7 8 10 10 11 12 14 14 23 25 26 27 27 30 20 17 18 18 18 20 21 22 21 20 20 20 21 21 21 24 30 28 22 19 19 17 18 19 19 19 21 24 24 22 19 17 17 18 19 20 18 16 10 9 8 7 6 5 6 8 11 13 13 12 13 16 17 9 13 14 16 15 15 17 17 20 22 34 40 42 41 40
5 6 6 7 7 9 11 11 12 13 14 19 23 25 26 28 24 16 17 15 17 20 19 21 22 22 21 21 20 20 21 21 26 30 31 29 21 19 19 18 16 16 16 15 23 28 30 32 33 33 31 28 28 29 27 24 15 9 6 7 9 6 8 11 13 11 14 13 12 17 11 13 13 14 14 15 18 17 19 21 24 34 38 39 39
5 6 6 7 8 9 11 12 12 14 15 18 23 24 26 27 25 18 16 16 18 16 17 19 18 20 22 30 27 23 22 22 28 31 32 27 20 20 20 19 17 15 16 13 16 16 26 28 28 32 32 29 26 25 25 25 24 17 10 12 6 4 10 10 13 12 14 15 14 13 12 14 14 13 15 11 13 15 19 20 23 27 35 34 38
5 5 5 7 9 10 11 12 17 17 15 16 22 23 26 27 23 18 18 17 15 16 18 19 20 19 20 21 28 26 25 27 33 32 33 28 21 19 19 17 17 16 18 15 17 16 15 14 13 13 14 21 19 16 14 17 20 18 13 11 6 9 12 12 12 11 12 15 13 15 14 12 17 14 16 13 11 7 16 19 21 21 21 21 24
Wind_Direction
355 345 337 344 339 343 344 354 344 349 345 344 343 335 331 330 329 330 327 322 318 315 315 308 304 306 301 300 296 294 293 290 289 288 286 286 287 287 292 292 290 292 293 292 293 291 290 291 291 285 279 273 271 270 266 262 260 257 252 247 239 227 227 226 230 229 218 214 214 213 215 211 203 198 198 191 190 189 185 182 179 174 175 177 175
349 341 336 336 331 336 342 352 345 348 347 341 341 332 328 323 325 322 323 322 317 315 311 306 304 301 301 299 295 293 291 289 289 288 288 287 286 285 279 280 287 287 285 286 286 287 287 287 288 287 282 277 270 268 267 264 262 259 257 250 247 238 226 232 229 229 221 224 215 213 214 213 201 197 196 191 192 191 185 182 180 176 177 180 179
347 340 333 331 331 335 340 342 342 352 346 339 336 326 318 315 318 318 318 315 311 313 311 309 304 301 299 297 295 293 289 286 284 284 284 284 285 287 286 278 271 276 281 281 281 281 281 281 283 284 283 278 273 269 268 267 264 261 258 253 247 245 239 229 227 223 215 222 218 216 218 214 205 195 196 193 189 189 179 174 179 183 182 183 180
342 337 331 324 326 330 328 338 341 346 343 340 330 319 312 309 308 307 304 303 304 304 304 302 302 301 300 295 293 291 289 289 286 284 282 282 282 283 283 286 280 272 273 276 278 277 276 277 278 279 281 284 280 272 269 267 266 262 259 257 247 242 241 234 229 222 216 209 220 214 215 214 207 200 198 194 191 183 176 174 178 180 185 185 181
336 329 323 316 320 319 329 332 339 342 333 329 323 315 313 314 313 312 305 307 300 302 303 299 299 300 299 296 296 290 288 286 285 283 282 281 281 280 279 283 283 280 269 263 268 273 274 274 275 276 277 277 278 276 269 265 262 262 262 258 255 241 231 236 233 227 225 214 209 217 214 214 209 196 198 194 188 181 176 174 177 181 183 186 184
329 321 318 315 314 312 321 325 334 333 325 327 327 325 317 315 315 314 313 307 308 310 308 304 301 299 297 297 292 290 289 284 283 281 280 278 279 278 278 276 279 281 282 274 264 264 268 270 269 271 273 275 274 274 274 268 263 262 261 259 255 250 238 233 234 228 229 226 209 207 213 210 209 205 196 188 186 180 175 175 178 180 181 186 183
314 313 310 308 309 307 311 317 329 319 317 324 317 313 307 309 311 311 306 304 305 305 305 302 303 300 295 295 292 293 288 285 282 278 276 276 274 273 273 274 274 276 277 279 275 262 260 266 271 271 270 271 271 268 268 270 267 263 261 261 258 253 249 237 236 236 227 224 215 217 217 211 207 206 204 193 184 178 177 176 178 178 184 183 182
303 300 300 302 302 302 304 314 312 307 309 308 303 298 303 300 296 298 305 303 305 304 305 302 301 300 298 293 290 286 282 280 278 277 274 275 272 272 270 271 272 272 274 277 277 278 271 267 267 267 269 270 272 273 270 267 267 263 258 257 257 256 250 243 239 238 233 225 220 210 212 215 209 205 197 191 182 176 177 178 181 182 184 184 180
286 286 284 287 292 296 295 296 301 299 296 304 296 296 301 297 296 299 297 303 303 301 302 303 303 299 297 292 285 285 280 278 277 275 275 269 270 269 266 265 266 264 265 266 271 274 270 260 256 260 260 259 263 266 267 268 266 265 261 256 254 255 254 246 235 235 237 230 225 221 213 209 208 200 197 191 181 179 176 176 179 181 185 182 180
277 279 281 281 281 283 287 285 291 292 293 296 293 290 288 295 299 299 300 302 303 307 306 305 302 299 294 289 286 280 277 277 273 274 271 271 269 267 267 268 266 264 264 265 268 271 274 274 266 256 253 255 257 261 261 261 261 261 260 259 255 253 253 250 233 227 231 231 225 229 224 219 223 226 203 188 184 177 172 174 175 181 183 181 179
267 270 274 283 280 278 277 283 282 283 285 283 288 286 289 297 296 297 296 294 296 297 299 304 301 296 291 287 283 276 273 271 271 268 265 266 267 268 268 266 266 266 265 266 265 265 268 271 276 275 264 246 243 248 254 256 255 255 256 255 255 254 253 253 241 220 223 225 228 227 226 217 219 217 214 205 181 175 176 175 176 180 182 179 176
267 270 271 273 284 281 279 277 273 275 278 280 285 298 301 299 294 297 296 293 285 289 299 305 300 293 286 280 275 280 276 269 267 265 265 263 263 266 269 268 265 267 265 264 264 265 266 267 267 269 272 266 255 253 252 252 250 252 250 252 251 251 251 251 249 236 220 222 226 228 224 216 211 203 206 198 185 187 182 177 178 180 180 178 176
264 266 274 277 275 278 274 271 269 271 268 274 284 288 291 290 296 294 295 299 298 298 304 309 305 300 294 289 289 279 268 266 261 259 257 257 261 267 267 267 264 264 266 265 265 266 266 268 267 266 267 274 267 250 245 249 253 247 248 247 249 247 248 247 244 238 227 221 223 225 222 217 214 212 200 196 192 183 185 183 183 183 181 177 175
266 270 272 271 275 275 273 270 273 275 276 278 279 284 287 294 301 302 295 299 298 305 305 315 306 321 323 319 302 276 265 259 250 250 254 258 260 264 269 273 274 274 274 272 272 269 269 269 268 268 267 268 270 271 263 244 239 240 243 245 246 246 246 247 244 239 230 222 222 223 225 225 217 215 199 194 190 184 184 187 184 182 182 179 174
260 264 268 268 269 271 271 276 275 282 288 290 291 290 293 295 301 303 310 300 289 292 295 296 300 312 300 290 304 327 308 270 251 249 258 264 271 274 274 273 275 276 278 277 272 272 271 271 272 271 273 272 271 271 266 263 262 238 235 240 242 244 246 245 246 241 235 228 223 223 221 222 220 211 203 194 189 187 185 183 183 181 184 183 177
261 261 260 261 263 266 272 272 278 279 282 289 290 289 293 301 302 301 302 302 301 298 299 292 286 316 315 318 306 301 300 311 329 296 287 274 266 267 268 270 274 272 273 273 273 275 272 270 269 271 272 271 276 281 275 270 265 255 235 236 236 239 240 243 244 244 238 231 228 224 221 221 218 219 205 193 190 185 182 184 182 181 182 181 183
259 255 256 259 260 260 265 273 274 278 281 282 286 288 291 286 291 290 288 295 300 298 293 278 270 254 266 303 307 286 277 303 333 297 279 260 262 269 270 274 276 276 275 271 274 277 278 274 271 272 272 271 265 259 265 270 266 261 249 229 232 232 234 237 241 242 239 233 228 222 220 218 216 212 212 203 192 187 184 183 182 181 178 183 183
254 258 255 259 261 263 266 271 277 278 282 287 287 288 285 287 287 288 286 282 288 298 293 280 263 254 246 245 251 273 302 306 319 299 313 270 274 265 266 269 269 271 270 271 272 273 273 273 269 269 269 267 268 268 266 274 284 280 263 247 223 232 229 231 234 238 243 239 234 227 217 217 216 211 199 199 197 193 188 187 182 182 182 181 182
262 260 262 264 269 268 268 271 279 284 287 288 288 286 285 283 279 274 276 283 281 283 287 293 289 256 245 246 250 256 263 281 288 304 300 304 265 278 280 275 278 277 273 271 272 274 273 272 274 273 269 269 267 264 259 257 260 261 276 276 250 228 232 227 228 233 238 240 238 233 228 218 215 216 213 197 195 191 191 190 186 183 182 181 182
267 269 267 267 267 268 266 271 278 281 284 279 277 278 278 273 267 265 267 262 262 266 282 283 279 284 262 259 255 255 254 256 258 267 283 294 297 289 269 275 277 266 269 270 267 267 269 269 268 267 266 265 265 264 262 260 252 257 259 263 259 240 230 229 224 224 229 234 239 237 230 224 217 214 216 211 199 194 193 188 183 181 180 179 179
255 260 257 258 258 261 264 269 272 275 271 273 273 271 271 272 270 266 263 265 259 263 269 271 270 271 276 266 263 260 260 255 256 255 260 283 285 286 289 291 278 272 271 269 268 267 267 269 267 267 266 265 264 266 266 263 262 256 253 257 267 261 239 231 227 223 223 227 231 239 236 230 219 214 212 212 210 203 196 193 183 178 179 179 180
256 253 255 255 258 263 268 269 270 272 271 272 275 274 272 269 266 265 266 264 261 259 257 264 267 267 262 269 267 265 261 259 251 250 257 251 265 286 289 288 289 280 273 269 270 268 266 265 267 264 261 260 258 260 264 264 260 254 249 249 254 263 255 234 228 221 221 222 225 231 242 238 226 220 213 210 202 197 190 184 184 181 179 183 183
270 266 259 260 262 266 270 273 278 274 273 275 274 276 275 275 275 269 264 260 262 262 262 261 262 263 260 257 257 254 255 258 259 254 254 259 264 268 277 278 274 282 275 271 270 272 264 262 262 261 259 259 262 262 260 261 265 266 269 264 264 268 271 255 230 223 219 220 220 223 228 239 234 217 214 205 199 193 191 182 180 182 181 181 183
263 266 261 260 269 272 275 277 277 276 276 279 281 278 278 279 275 269 266 261 259 259 258 260 257 260 258 254 254 254 254 252 256 257 255 259 261 270 273 284 282 267 273 275 271 269 266 263 261 263 262 260 258 256 258 265 265 265 265 260 256 258 259 263 254 231 219 218 218 219 221 229 234 221 214 208 199 195 191 190 186 180 177 180 183
255 260 263 262 270 271 274 277 282 280 282 284 281 278 276 273 272 269 264 262 259 256 257 256 257 257 260 257 256 254 253 253 255 253 254 259 261 265 265 269 273 283 277 274 272 268 262 263 259 255 256 257 258 257 261 260 262 257 254 253 250 251 254 254 253 244 225 217 216 217 218 222 227 224 213 210 204 202 197 186 182 186 183 176 184
271 267 270 271 270 271 276 278 281 283 282 281 279 278 275 273 271 269 267 263 261 258 258 259 258 258 258 261 258 257 257 255 254 253 253 256 256 257 270 269 267 273 281 274 266 269 264 254 254 254 256 257 256 256 257 257 259 265 264 263 263 251 249 252 251 246 231 217 214 215 216 220 222 222 213 208 205 201 193 183 183 181 186 186 181
268 273 276 273 276 280 282 287 289 286 284 282 279 275 273 274 271 269 267 263 262 260 258 259 258 257 257 256 261 260 258 255 252 252 255 256 258 260 264 270 270 267 272 272 270 254 260 266 261 263 260 256 253 253 255 259 255 260 264 257 252 251 249 252 252 248 234 219 214 213 215 218 220 219 215 208 207 202 201 189 179 181 180 185 184
265 266 267 269 277 282 286 282 285 282 280 277 276 274 274 273 271 267 266 262 262 261 260 261 260 259 259 257 258 259 261 260 261 262 263 262 263 267 257 258 263 274 272 273 267 261 257 263 263 257 257 256 258 261 259 263 265 265 264 263 264 262 251 247 249 248 239 223 214 212 214 216 217 217 216 209 205 206 199 187 182 178 181 182 184
260 262 265 268 278 283 287 284 281 277 274 274 272 273 274 273 270 269 267 267 266 264 263 262 263 264 263 262 264 265 264 267 267 263 262 257 258 255 253 251 254 258 271 272 268 269 258 255 265 259 256 258 257 254 258 259 258 253 253 251 249 249 248 249 251 251 243 228 215 212 212 215 216 215 215 211 201 198 194 186 179 183 182 182 184
261 261 262 276 284 285 281 280 278 274 272 274 276 276 275 272 269 269 269 270 269 267 264 264 265 268 267 266 273 267 270 268 264 262 260 255 256 254 255 253 252 255 263 269 273 264 269 261 259 265 263 264 260 257 258 255 256 265 279 277 276 272 274 258 250 251 246 233 218 213 212 214 215 214 213 211 205 196 191 188 185 182 186 183 181
259 263 272 284 286 285 283 282 281 278 278 279 280 278 275 273 271 271 270 269 269 270 269 267 272 273 271 270 268 264 264 265 265 263 259 257 256 255 255 253 253 252 258 263 271 266 258 267 263 263 268 277 276 271 262 259 260 262 265 273 277 281 281 281 277 267 254 241 224 211 211 213 213 212 211 207 205 208 191 184 185 182 183 188 181
265 270 276 288 290 286 283 285 285 285 283 282 278 277 275 271 272 271 271 271 272 271 272 268 271 271 272 267 265 263 264 265 264 261 260 258 256 255 254 255 254 252 256 261 262 270 264 265 267 267 262 262 262 265 262 260 263 259 262 267 272 276 274 271 264 264 260 246 233 217 211 211 211 210 209 203 201 200 200 185 180 179 180 183 184
273 284 288 295 292 285 285 283 281 283 283 280 277 274 272 272 270 271 275 274 273 272 272 274 273 274 272 267 265 265 264 263 263 263 261 260 257 256 254 254 254 251 250 254 259 266 268 260 262 262 261 261 268 267 268 264 263 266 264 262 264 270 275 272 266 263 260 250 236 223 213 209 210 210 206 203 200 194 191 189 183 179 177 178 181
281 294 293 295 289 287 286 284 281 281 279 277 277 275 275 275 274 274 275 277 276 274 274 276 281 276 274 269 267 268 266 264 264 264 263 263 259 255 253 253 259 260 250 249 254 262 268 266 261 259 259 252 255 256 259 261 261 259 262 263 261 267 273 271 267 266 265 253 237 223 214 209 210 209 206 203 198 204 193 185 184 182 178 177 178
292 292 291 292 290 286 285 285 282 281 278 280 279 276 274 274 276 277 278 280 278 275 277 281 281 279 272 270 270 270 267 266 265 263 263 264 262 258 256 257 256 256 259 262 266 262 259 261 257 259 256 254 254 258 257 254 253 257 262 263 264 267 265 266 265 266 266 261 241 223 211 207 207 208 206 201 203 196 205 195 182 183 181 178 178
292 293 291 287 289 287 286 285 281 283 282 282 284 280 278 279 280 281 280 278 275 275 279 283 281 276 274 272 270 271 269 266 264 264 262 262 263 262 260 258 258 257 255 253 254 265 272 272 265 266 260 256 254 256 259 252 253 251 255 265 268 267 270 269 264 262 264 263 248 226 208 204 203 205 203 203 200 199 194 199 188 178 179 179 177
289 293 290 288 287 288 285 285 285 283 284 284 284 284 282 282 280 282 280 280 280 281 281 282 275 273 272 270 271 268 267 266 263 262 262 263 261 261 262 263 262 264 264 257 252 250 258 263 267 257 255 258 262 261 256 252 248 252 258 263 267 265 266 266 265 259 261 264 249 230 212 201 201 202 202 201 200 197 192 186 191 181 176 177 177
293 288 288 289 286 285 285 284 285 286 286 284 286 286 287 286 285 283 282 282 286 283 277 273 271 272 270 269 269 268 265 263 263 263 263 266 266 263 262 263 262 261 262 265 266 260 251 255 260 267 257 254 259 260 250 244 251 259 263 264 265 262 267 270 262 263 263 262 250 227 211 203 200 199 199 199 197 193 194 190 180 182 177 176 178
289 287 287 286 285 285 285 284 282 286 286 286 287 289 291 291 289 286 287 290 287 281 279 274 270 265 269 265 263 261 262 259 260 259 260 261 267 263 262 264 264 263 262 261 260 268 267 259 255 254 260 258 255 257 248 248 248 253 265 273 271 263 263 263 268 265 259 262 249 225 208 198 197 199 196 195 194 193 191 189 201 179 177 176 177
281 282 285 286 286 282 283 283 284 285 287 288 288 288 291 293 294 294 291 287 284 283 281 279 275 271 266 264 260 258 256 257 253 259 254 257 262 267 263 264 266 264 262 263 263 261 267 271 263 258 254 258 254 248 253 244 246 254 250 260 271 276 270 263 259 267 270 258 249 218 202 196 195 193 198 195 194 190 191 190 188 204 180 174 174
278 279 281 282 283 281 280 282 286 287 287 286 288 289 294 296 295 292 291 287 286 287 284 278 276 268 273 266 266 260 253 253 248 251 256 253 255 263 261 260 260 259 257 258 262 263 264 269 274 272 267 259 254 247 242 241 232 246 255 252 269 273 277 279 273 261 260 263 245 218 200 193 193 194 192 196 195 191 187 185 180 184 192 176 170
278 282 281 279 279 282 285 287 289 289 286 282 281 286 293 295 297 297 294 291 287 278 277 273 270 269 262 271 261 269 260 257 252 253 254 260 257 256 262 260 258 261 260 258 255 259 263 261 258 264 266 261 250 241 247 249 253 256 262 264 267 270 267 267 271 263 255 254 244 216 202 192 188 190 192 193 193 188 187 182 179 171 180 177 167
277 280 278 280 281 284 288 290 292 289 287 284 287 292 296 299 299 297 295 291 284 285 278 278 278 277 271 271 269 271 267 269 260 255 252 256 263 258 260 260 258 259 258 258 256 256 260 261 260 260 268 277 268 247 248 255 254 257 261 264 265 268 262 263 270 276 240 237 242 214 200 190 183 189 193 193 189 186 183 183 172 167 170 171 168
276 277 279 281 286 290 292 293 291 291 290 288 292 298 300 300 300 299 295 292 293 287 289 283 285 282 284 281 280 276 273 270 265 259 254 255 259 263 259 263 263 260 259 260 263 261 256 259 259 256 259 263 277 261 249 245 254 261 263 270 271 273 270 263 261 262 278 249 236 220 197 191 182 183 190 191 183 179 178 172 170 170 167 168 169
279 277 279 287 287 291 291 293 294 294 292 292 297 301 303 303 303 303 297 296 293 295 291 292 289 288 286 284 282 276 274 273 271 266 263 257 259 261 263 259 264 262 262 261 260 260 261 259 256 260 255 264 275 275 266 255 259 267 281 281 284 290 286 271 254 266 272 263 241 217 200 186 182 183 188 185 177 175 172 169 167 168 168 166 167
272 276 279 282 287 293 297 297 296 296 295 294 299 303 304 305 306 305 302 299 297 294 294 292 291 288 286 285 284 281 278 277 274 271 270 265 266 264 264 261 260 259 259 260 258 259 258 256 257 254 256 256 263 276 278 274 260 262 270 276 285 285 287 287 299 294 285 274 245 213 200 186 182 181 185 179 174 171 172 170 167 167 166 164 166
271 276 281 287 291 295 296 298 297 298 293 298 302 303 305 306 307 309 304 300 298 296 295 292 289 287 285 282 281 280 279 276 272 272 272 269 267 265 261 257 254 256 258 260 259 256 252 246 250 252 253 254 257 264 273 264 253 252 252 264 272 276 284 288 286 273 271 265 253 216 202 181 175 180 182 172 171 169 169 170 170 167 165 164 165
274 277 281 285 291 297 297 299 297 293 294 299 302 304 307 309 310 309 304 300 298 294 295 294 290 287 285 282 281 279 277 276 274 273 273 272 267 262 257 252 253 253 254 259 260 260 258 256 256 251 246 246 249 254 255 254 256 256 256 254 243 264 285 288 279 281 269 264 244 220 183 180 178 178 175 168 164 165 165 168 171 168 165 163 164
279 282 285 288 289 294 297 288 290 289 289 296 302 305 307 311 312 308 305 300 299 296 290 293 293 289 286 282 279 280 278 276 275 275 274 273 269 265 263 255 245 247 250 259 263 264 259 251 252 257 252 245 243 243 243 244 248 244 242 253 259 265 271 280 280 284 279 274 251 216 182 171 178 172 165 166 165 161 162 166 169 168 165 163 164
284 285 292 293 292 293 288 285 282 287 292 299 305 307 310 311 314 312 306 304 296 288 289 289 291 290 287 286 283 281 279 277 276 274 273 272 269 265 263 258 251 246 252 254 263 262 266 264 253 249 250 249 248 250 252 254 254 255 251 251 261 279 266 263 274 278 284 281 251 208 177 173 162 169 160 157 155 163 162 165 166 167 165 165 166
275 282 294 298 300 296 281 276 285 294 294 299 305 308 311 313 315 311 310 304 293 294 298 298 296 292 291 289 286 283 281 279 278 277 275 272 264 260 258 253 248 247 254 261 263 262 257 252 257 262 252 242 240 243 242 242 250 251 244 246 248 238 258 264 260 277 288 275 240 202 178 163 162 169 151 147 154 153 162 160 164 163 165 164 166